Location: Franzen
(48.6167°N, 15.3833°E)
Time: 10:53:14
(UTC+00:00)

Cosmos 158 Rocket - Pass Details

Date: 22 April 2021
Orbit: 699 x 792 km, 74.0° (Epoch: 16 May)

Event Time Altitude Azimuth Distance (km) Brightness Sun altitude
Rises 23:37:40 0° 340° (NNW) 3,128 8.0 -28.2°
Reaches altitude 10° 23:40:05 10° 345° (NNW) 2,194 7.1 -28.1°
Maximum altitude 23:44:54 51° 62° (ENE) 884 4.4 -27.9°
Enters shadow 23:45:07 51° 72° (ENE) 888 4.4 -27.9°
